Location: Woodstock
(35.2731°N, 89.9823°W)
Time: 18:50:43
(UTC+00:00)

SR - All Passes

Search period start: 07 November 2024 00:00
Search period end: 17 November 2024 00:00
Orbit: 575 x 857 km, 66.7° (Epoch: 06 November)

Date Brightness Start Highest point End Pass type
(mag) Time Alt. Az. Time Alt. Az. Time Alt. Az.
07 Nov - 05:19:57 10° S 05:23:57 46° ESE 05:28:09 10° NE night (unlit)
07 Nov - 07:03:29 10° W 07:06:01 15° NW 07:08:37 10° NNW night (unlit)
07 Nov - 14:01:51 10° N 14:05:49 21° NE 14:09:56 10° ESE daylight
07 Nov - 15:42:40 10° NW 15:47:51 52° WSW 15:53:20 10° S daylight
08 Nov - 04:28:17 10° SSE 04:31:02 17° ESE 04:33:52 10° ENE night (unlit)
08 Nov - 06:08:34 10° WSW 06:12:26 34° WNW 06:16:30 10° N night (unlit)
08 Nov - 13:11:30 10° NE 13:12:03 10° NE 13:12:35 10° NE daylight
08 Nov - 14:49:21 10° NNW 14:54:39 71° ENE 15:00:17 10° SSE daylight
08 Nov - 16:33:19 10° WNW 16:35:57 14° WSW 16:38:39 10° SW daylight
09 Nov - 05:14:54 10° SSW 05:19:07 89° E 05:23:33 10° NNE night (unlit)
09 Nov - 13:56:30 10° N 14:01:16 33° ENE 14:06:17 10° ESE daylight
09 Nov - 15:38:17 10° NW 15:43:01 31° WSW 15:47:57 10° S daylight
10 Nov - 04:22:18 10° S 04:26:02 32° ESE 04:29:56 10° NE night (unlit)
10 Nov - 06:04:39 10° WSW 06:07:51 20° NW 06:11:11 10° N night (unlit)
10 Nov - 13:04:21 10° NNE 13:07:40 16° NE 13:11:05 10° E daylight
10 Nov - 14:44:33 10° NNW 14:49:54 71° WSW 14:55:33 10° SSE daylight
11 Nov - 03:31:35 10° SE 03:33:10 12° ESE 03:34:45 10° E night (unlit)
11 Nov - 05:10:15 10° SW 05:14:21 48° WNW 05:18:40 10° NNE night (unlit)
11 Nov - 13:51:24 10° NNW 13:56:37 53° ENE 14:02:08 10° SE daylight
11 Nov - 15:34:21 10° WNW 15:38:05 19° WSW 15:41:55 10° SSW daylight
12 Nov - 04:16:57 10° SSW 04:21:06 62° ESE 04:25:28 10° NNE night (unlit)
12 Nov - 06:01:32 10° WNW 06:03:21 12° NW 06:05:14 10° NNW night (unlit)
12 Nov - 12:58:44 10° N 13:03:09 26° NE 13:07:45 10° ESE daylight
12 Nov - 14:39:58 10° NW 14:45:03 42° WSW 14:50:23 10° S daylight
13 Nov - 03:24:47 10° SSE 03:28:05 22° ESE 03:31:30 10° NE night (unlit)
13 Nov - 05:06:00 10° WSW 05:09:40 27° NW 05:13:30 10° N night (unlit)
13 Nov - 12:07:05 10° NNE 12:09:25 13° NE 12:11:48 10° ENE visible
13 Nov - 13:46:28 10° NNW 13:51:52 87° ENE 13:57:34 10° SSE daylight
13 Nov - 15:31:56 10° W 15:33:02 11° WSW 15:34:09 10° WSW daylight
14 Nov - 04:12:01 10° SSW 04:16:14 70° WNW 04:20:41 10° NNE night (unlit)
14 Nov - 12:53:28 10° NNW 12:58:30 40° ENE 13:03:48 10° SE daylight
14 Nov - 14:35:42 10° NW 14:40:06 25° WSW 14:44:42 10° SSW daylight
15 Nov - 03:19:04 10° S 03:23:03 42° ESE 03:27:14 10° NE night (unlit)
15 Nov - 05:02:16 10° W 05:05:03 17° NW 05:07:58 10° N night (unlit)
15 Nov - 12:01:01 10° N 12:04:55 20° NE 12:08:57 10° E visible
15 Nov - 13:41:43 10° NW 13:47:01 57° WSW 13:52:35 10° S daylight
16 Nov - 02:27:32 10° SE 02:30:06 16° ESE 02:32:44 10° ENE night (unlit)
16 Nov - 04:07:28 10° SW 04:11:26 37° WNW 04:15:38 10° N night (unlit)
16 Nov - 12:48:23 10° NNW 12:53:45 66° ENE 12:59:24 10° SE daylight
16 Nov - 14:32:01 10° WNW 14:35:05 15° WSW 14:38:12 10° SW daylight
